Regional Weather Roundup
Issued by NWS Little Rock, AR

Home | Current Version | Previous Version | Text Only | Print | Product List | Glossary On
Versions: 1 2 3 4 5 6 7 8 9 10 11 12 13 14 15 16 17 18 19 20 21 22 23 24 25 26 27 28 29 30 31 32 33 34 35 36 37 38 39 40 41 42 43 44 45 46 47 48 49 50
000
ASUS44 KLZK 230205
RWRLZK

WEATHER ROUNDUP FOR ARKANSAS
NATIONAL WEATHER SERVICE LITTLE ROCK AR
900 PM CDT FRI AUG 22 2014

NOTE: "FAIR" INDICATES FEW OR NO CLOUDS BELOW 12,000 FEET WITH NO
SIGNIFICANT WEATHER AND/OR OBSTRUCTIONS TO VISIBILITY.

ARZ001-003-010-029-230300-
NORTHWEST ARKANSAS

CITY           SKY/WX    TMP DP  RH WIND       PRES   REMARKS
FAYETTEVILLE   CLEAR     79  72  79 CALM      29.99S
FORT SMITH     CLEAR     87  76  69 S6        29.94S HX  97
HARRISON       CLEAR     82  74  76 S6        30.00F HX  88
BENTONVILLE    CLEAR     84  72  65 S6        30.00S HX  89
ROGERS         CLEAR     86  70  58 S9        29.99F HX  90
SILOAM SPGS    CLEAR     82  70  65 S6        29.99R HX  86
HIGHFILL       CLEAR     83  72  69 S7        29.98S HX  88
SPRINGDALE     CLEAR     86  72  62 S5        30.01S HX  92
$$

ARZ004-005-016-230300-
NORTH CENTRAL ARKANSAS

CITY           SKY/WX    TMP DP  RH WIND       PRES   REMARKS
BATESVILLE     CLEAR     86  73  66 S5        29.97R HX  93
FLIPPIN        CLEAR     88  70  55 SW7       29.96F HX  92
MTN HOME       PTCLDY    85  72  65 SW5       29.96F HX  91
$$

ARZ040-041-230300-
WEST CENTRAL ARKANSAS

CITY           SKY/WX    TMP DP  RH WIND       PRES   REMARKS
MENA           CLEAR     81  75  83 CALM      30.02R HX  86
MOUNT IDA      CLEAR     80  75  84 CALM      29.99R HX  85
$$

ARZ009-017-025-026-028-230300-
NORTHEAST ARKANSAS

CITY           SKY/WX    TMP DP  RH WIND       PRES   REMARKS
CORNING        LGT RAIN  84  75  74 S9        29.95R HX  92
JONESBORO      CLEAR     86  73  65 SW13      29.96R HX  93
NEWPORT        CLEAR     82  76  82 S7        29.97S HX  89
WALNUT RIDGE   CLEAR     82  70  65 S9        29.94S HX  86
BLYTHEVILLE    CLEAR     83  78  85 SW7       29.97R HX  93
$$

ARZ022-023-033-042-044-230300-
CENTRAL ARKANSAS

CITY           SKY/WX    TMP DP  RH WIND       PRES   REMARKS
LITTLE ROCK    CLEAR     83  76  79 S5        29.98R HX  91
N LITTLE ROCK  CLEAR     85  78  78 SW6       29.98R HX  97
JACKSONVILLE   CLEAR     85  77  76 S6        29.97S HX  95
SEARCY           N/A     82  77  85 CALM        N/A  HX  90
HOT SPRINGS    CLEAR     84  74  71 CALM      30.00R HX  91
RUSSELLVILLE   CLEAR     81  75  82 CALM      29.97R HX  87
CLINTON        FAIR      82  75  78 CALM      29.98R HX  89
$$

ARZ036-230300-
EAST ARKANSAS

CITY           SKY/WX    TMP DP  RH WIND       PRES   REMARKS
WEST MEMPHIS   CLEAR     84  77  79 S5        29.97R HX  94
$$

ARZ050-053-066-070-073-230300-
SOUTHWEST ARKANSAS

CITY           SKY/WX    TMP DP  RH WIND       PRES   REMARKS
ARKADELPHIA    FAIR      82  80  94 CALM      29.99R HX  93
CAMDEN         CLEAR     81  75  83 CALM      29.99R HX  86
TEXARKANA      CLEAR     83  71  67 SE6       29.98R HX  87
EL DORADO      CLEAR     79  76  90 CALM      30.00S
DE QUEEN       CLEAR     80  77  90 CALM      29.96R HX  87
$$

ARZ056-057-069-230300-
SOUTHEAST ARKANSAS

CITY           SKY/WX    TMP DP  RH WIND       PRES   REMARKS
PINE BLUFF     CLEAR     83  75  77 SW3       29.99R HX  90
STUTTGART      CLEAR     82  75  78 S6        29.99S HX  89
MONTICELLO     CLEAR     86  71  60 SW6       30.00R HX  91

$$




USA.gov is the U.S. government's official web portal to all federal, state and local government web resources and services.